Flag for Finland Weather past 2 weeks in Rovaniemi, Finland

Now
32 °F

Snow flurries. Partly sunny.


Feels Like: 25 °F
Forecast: 31 / 37 °F
Wind: 8 mph from Southeast

Location: Rovaniemi Airport

Current Time: Mar 30, 2015 at 8:56:39 PM

Latest Report: Mar 30, 2015 at 8:20 PM


Visibility: 5 mi

Pressure: 29.24 "Hg

Humidity: 100%

Dew point: 32 °F

Location of RovaniemiLocation

Historic Weather in Rovaniemi — Graph

°F

Rovaniemi temperature yesterday

Maximum temperature yesterday: 34 °F (at 3:50 PM)
Minimum temperature yesterday: 28 °F (at 1:20 AM)
Average temperature yesterday: 31 °F

Past Weeks' High & Low Weather Summary

 TemperatureHumidityPressure
High41 °F (Mar 16, 2:20 PM)100% (Mar 17, 11:20 PM)30.80 "Hg (Mar 17, 11:20 PM)
Low5 °F (Mar 22, 4:50 AM)25% (Mar 27, 1:50 PM)29.09 "Hg (Mar 23, 7:50 PM)
Average26 °F77%29.95 "Hg
* Reported Mar 15 6:20 PM — Mar 30 7:20 PM, Rovaniemi, Weather by CustomWeather, © 2015

Note: Actual official high and low records may vary slightly from our data, if they occured in-between our weather recording intervals... More about our weather records

Advertising

Rovaniemi weather history for previous 24 hours

 ConditionsComfort  
Time TempWeatherWind HumidityBarometerVisibility
7:20 PM
Mon, Mar 30
32 °FBroken clouds.12 mph100%29.21 "HgN/A
6:50 PM32 °FPartly sunny.12 mph100%29.21 "HgN/A
6:20 PM32 °FPartly sunny.13 mph100%29.21 "HgN/A
5:50 PM32 °FSnow flurries. Broken clouds.12 mph100%29.21 "HgN/A
5:20 PM32 °FLight snow. Partly sunny.12 mph100%29.21 "Hg5 mi
4:50 PM32 °FSnow flurries. Broken clouds.10 mph100%29.18 "HgN/A
4:20 PM32 °FLight snow. Partly sunny.12 mph100%29.18 "Hg4 mi
3:50 PM32 °FLight snow. Partly sunny.12 mph100%29.18 "Hg4 mi
3:20 PM32 °FLight snow. Broken clouds.13 mph100%29.18 "Hg5 mi
2:50 PM32 °FLight rain. Partly sunny.13 mph100%29.18 "Hg4 mi
2:20 PM32 °FLight rain. Partly sunny.12 mph100%29.18 "Hg2 mi
1:50 PM32 °FLight rain. Partly sunny.13 mph100%29.18 "Hg3 mi
1:20 PM32 °FLight rain. Partly sunny.12 mph100%29.18 "Hg3 mi
12:50 PM32 °FLight rain. Broken clouds.13 mph100%29.15 "Hg3 mi
12:20 PM32 °FLight rain. Broken clouds.10 mph100%29.15 "Hg3 mi
11:50 AM32 °FLight rain. Broken clouds.10 mph100%29.15 "Hg2 mi
11:20 AM32 °FLight snow. Partly sunny.12 mph100%29.15 "Hg4 mi
10:50 AM32 °FLight snow. Partly sunny.12 mph100%29.15 "Hg2 mi
10:20 AM32 °FLight snow. Broken clouds.12 mph100%29.15 "Hg1 mi
9:50 AM32 °FLight snow. Broken clouds.12 mph100%29.15 "Hg4 mi
9:20 AM32 °FLight snow. Partly sunny.10 mph100%29.15 "HgN/A
8:50 AM32 °FLight snow. Broken clouds.12 mph100%29.15 "Hg4 mi
8:20 AM32 °FLight snow. Partly sunny.9 mph100%29.18 "HgN/A
7:50 AM32 °FLight snow. Partly sunny.10 mph100%29.18 "Hg4 mi
7:20 AM32 °FLight snow. Passing clouds.10 mph100%29.18 "Hg4 mi
6:50 AM32 °FSnow flurries. Passing clouds.9 mph100%29.18 "Hg2 mi
6:20 AM32 °FPartly cloudy.7 mph93%29.18 "HgN/A
5:50 AM32 °FPartly cloudy.8 mph100%29.21 "Hg6 mi
5:20 AM32 °FPassing clouds.8 mph93%29.21 "HgN/A
4:50 AM32 °FPartly cloudy.8 mph93%29.24 "HgN/A
4:20 AM32 °FLight snow. Overcast.8 mph93%29.24 "HgN/A
3:50 AM32 °FPartly cloudy.9 mph93%29.24 "HgN/A
3:20 AM32 °FOvercast.9 mph93%29.27 "HgN/A
2:50 AM32 °FMostly cloudy.9 mph93%29.27 "HgN/A
2:20 AM32 °FOvercast.9 mph93%29.30 "HgN/A
1:50 AM32 °FMostly cloudy.9 mph93%29.30 "HgN/A
1:20 AM32 °FOvercast.9 mph93%29.33 "HgN/A
12:50 AM32 °FOvercast.8 mph93%29.33 "HgN/A
12:20 AM32 °FOvercast.9 mph93%29.33 "HgN/A
11:50 PM
Sun, Mar 29
32 °FOvercast.10 mph93%29.36 "HgN/A
11:20 PM32 °FMostly cloudy.10 mph93%29.36 "HgN/A
10:50 PM32 °FMostly cloudy.8 mph93%29.39 "HgN/A
10:20 PM32 °FOvercast.10 mph93%29.39 "HgN/A
9:50 PM32 °FMostly cloudy.12 mph93%29.39 "HgN/A
9:20 PM32 °FMostly cloudy.10 mph93%29.42 "HgN/A
8:50 PM32 °FMore clouds than sun.10 mph93%29.42 "HgN/A
8:20 PM32 °FCloudy.10 mph93%29.42 "HgN/A
Weather by CustomWeather, © 2015

See weather overviewHow to use our weather pages